[[{"header":{"parameterUnit":"m.s-1","parameterCategory":1,"la1":30.2991,"la2":30.254,"lo1":-89.0895,"lo2":-89.0444,"dy":0.0017,"dx":0.0017,"nx":28,"ny":28,"refTime":"2025-07-12T09:00:00:Z","depth":0,"parameterNumber":2,"parameterNumberName":"U-component_of_WINDS"},"data":[0,0,0,0,0,0,0,0,0,0,0,0,0,0,0,0,0,0,0,0,0,0,0,0,0,0,0,0,0,0,0,0,0,0,0,0,0,0,0,0,0,0,0,0,0,0,0,0,0,0,0,0,0,0,0,0,0,0,2.3926,2.3926,0,2.395,2.395,2.3951,2.3905,2.3903,2.3902,2.39,2.3926,2.3928,2.3931,0,0,0,0,0,0,0,0,0,0,0,0,0,2.384,2.3842,2.3926,2.3926,2.3927,2.395,2.395,2.3951,2.3905,2.3903,2.3901,2.39,2.3926,2.3928,2.3931,0,0,0,0,0,0,0,0,0,0,0,0,0,2.3872,2.3842,2.3926,2.3907,2.3905,2.395,2.395,2.3951,2.3906,2.3903,2.3901,2.3899,2.3925,2.3928,2.3931,2.3996,0,0,2.3941,2.3942,0,0,0,0,0,0,0,0,2.387,2.3875,2.3909,2.3908,2.3906,2.3922,2.3929,2.3966,2.3906,2.3905,2.39,2.3898,2.3927,2.393,2.3939,2.3997,2.3998,2.3941,2.3943,2.3944,2.3945,0,0,0,0,0,0,0,2.3868,2.3874,2.3935,2.391,2.3908,2.3896,2.3899,2.3936,2.3929,2.3905,2.3902,2.3905,2.3926,2.3936,2.394,2.3999,2.3941,2.3944,2.3946,2.3947,2.4107,2.4109,0,0,0,0,0,0,2.3868,2.3872,2.3935,2.3936,2.3882,2.39,2.3902,2.3919,2.3928,2.3927,2.3907,2.3903,2.3932,2.3936,2.394,2.4013,2.3944,2.3947,2.3949,2.4105,2.4107,2.411,0,0,0,0,0,0,2.3866,2.3874,2.3934,2.3903,2.391,2.3904,2.3923,2.3921,2.3932,2.393,2.3928,2.392,2.393,2.3936,2.3981,2.4014,2.3949,2.3952,2.4102,2.4105,2.4109,2.4163,0,0,0,0,0,0,2.3864,2.3874,2.3899,2.3904,2.3912,2.3975,2.3926,2.3923,2.3937,2.3932,2.3941,2.394,2.3929,2.3977,2.3985,2.4017,2.3954,2.4099,2.4103,2.4108,2.4158,2.4168,2.4176,0,0,0,0,0,2.3861,2.3914,2.39,2.3908,2.3943,2.3977,2.3981,2.3967,2.394,2.3964,2.3962,2.394,2.401,2.3982,2.399,2.4024,2.4097,2.4102,2.4107,2.4154,2.4166,2.4176,0,0,0,0,0,0,2.3915,2.3915,2.3899,2.3956,2.3966,2.3969,2.4,2.3981,2.4,2.3994,2.3977,2.3979,2.4027,2.4031,2.4,2.4085,2.4048,2.4056,2.4081,2.4092,2.4101,2.4098,2.3957,0,0,0,0,0,2.3933,2.396,2.3959,2.4009,2.4015,2.4007,2.4021,2.4009,2.4019,2.4024,2.4026,2.4037,2.4061,2.4077,2.41,2.4159,2.4158,2.4186,2.4195,2.4202,2.4208,2.4236,2.4247,2.4127,2.4127,2.4127,0,0,2.3971,2.3974,2.3993,2.402,2.4026,2.4054,2.4011,2.4043,2.4063,2.4029,2.4071,2.4073,2.4084,2.4135,2.4158,2.414,2.4241,2.4209,2.4215,2.4217,2.4242,2.4254,2.4264,2.4131,2.413,2.413,0,0,2.4053,2.406,2.41,2.4107,2.4117,2.4111,2.4121,2.4126,2.4125,2.4167,2.414,2.4164,2.4207,2.4215,2.4225,2.4307,2.4286,2.4315,2.4361,2.4389,2.4398,2.4406,2.4432,2.4443,2.4322,2.4322,2.4322,0,2.4099,2.414,2.4124,2.4156,2.4167,2.4137,2.4176,2.4184,2.4202,2.421,2.4189,2.4239,2.4245,2.4296,2.4316,2.4326,2.4335,2.4313,2.4398,2.4406,2.4414,2.4438,2.4449,2.4325,2.4325,2.4324,2.4324,0,2.4194,2.4222,2.4254,2.4269,2.4284,2.4321,2.4309,2.4326,2.4312,2.4308,2.4349,2.4355,2.4376,2.4387,2.4376,2.4436,2.4424,2.4401,2.4363,2.4428,2.4451,2.4461,2.433,2.4328,2.4327,2.4327,0,0,2.4311,2.4315,2.4326,2.4331,2.4339,2.436,2.4394,2.4414,2.4427,2.4441,2.4467,2.4502,2.448,2.4491,2.448,2.4504,2.4565,2.4478,2.4478,2.4491,2.4628,2.4643,2.4654,2.4551,2.4553,2.4555,2.4626,0,2.439,2.4447,2.4432,2.4488,2.4512,2.4483,2.4512,2.4519,2.4516,2.4536,2.4532,2.4556,2.4527,2.4533,2.4556,2.4552,2.4591,2.4548,2.4574,2.4575,2.4569,2.4666,2.4683,2.475,2.4635,2.4636,2.4638,0,2.449,2.4503,2.4562,2.4562,2.4572,2.4598,2.4613,2.4633,2.464,2.4636,2.4647,2.4629,2.4661,2.4625,2.4667,2.4638,2.4648,2.4648,2.465,2.465,2.4608,2.4666,2.4771,2.478,2.4652,2.4651,2.465,0,2.4564,2.4598,2.4636,2.4642,2.4645,2.4663,2.4665,2.467,2.4682,2.4695,2.4702,2.472,2.4729,2.4742,2.473,2.4705,2.4773,2.4736,2.4768,2.4769,2.4782,2.4781,2.4888,2.4794,2.4794,2.4794,2.4794,0,2.4652,2.4688,2.4669,2.4693,2.4731,2.4714,2.4752,2.4751,2.4755,2.4777,2.4754,2.4775,2.4758,2.4777,2.4768,2.4803,2.4808,2.4804,2.4801,2.4804,2.4804,2.4809,2.4803,2.4796,2.4796,2.4795,2.4795,0,2.4742,2.4731,2.4769,2.4768,2.4768,2.4796,2.4794,2.4815,2.4809,2.4837,2.4843,2.4833,2.4855,2.4844,2.4867,2.486,2.4904,2.4896,2.4901,2.4898,2.4929,2.4925,2.504,2.5053,2.4954,2.4955,2.4956,0,2.4797,2.4823,2.4823,2.4835,2.4838,2.4859,2.4869,2.4853,2.4865,2.4874,2.4893,2.4912,2.4926,2.4961,2.4956,2.4973,2.4963,2.5002,2.4965,2.4967,2.4959,2.4957,2.4958,2.5008,2.501,2.5011,2.5011,0,2.4895,2.4887,2.4903,2.4917,2.493,2.494,2.4948,2.496,2.4943,2.4958,2.4978,2.4989,2.501,2.5028,2.5042,2.5044,2.5024,2.5023,2.5031,2.5034,2.5034,2.5031,2.4918,2.502,2.5019,2.5019,2.5018,2.5018,2.4967,2.4987,2.4989,2.5007,2.5011,2.5018,2.5037,2.5032,2.5048,2.5063,2.5053,2.5076,2.5081,2.5097,2.5101,2.5118,2.5103,2.5115,2.5117,2.512,2.5122,2.5033,2.5121,2.5121,2.5121,2.512,2.512,0,2.506,2.506,2.5076,2.5087,2.51,2.508,2.5088,2.51,2.512,2.5125,2.5139,2.5161,2.5178,2.5174,2.5189,2.5203,2.5194,2.5207,2.5205,2.5205,2.5137,2.5127,2.5214,2.5214,2.5214,2.5214,2.5214,2.5214,2.511,2.5143,2.5135,2.5169,2.5168,2.5189,2.5195,2.5201,2.5204,2.5229,2.5242,2.5239,2.524,2.5255,2.5269,2.5267,2.5272,2.5288,2.5283,2.5219,2.521,2.5201,2.5191,2.529,2.529,2.5348,2.5349,2.5349]},{"header":{"parameterUnit":"m.s-1","parameterCategory":1,"la1":30.2991,"la2":30.254,"lo1":-89.0895,"lo2":-89.0444,"dy":0.0017,"dx":0.0017,"nx":28,"ny":28,"refTime":"2025-07-12T09:00:00:Z","depth":0,"parameterNumber":3,"parameterNumberName":"V-component_of_WINDS"},"data":[0,0,0,0,0,0,0,0,0,0,0,0,0,0,0,0,0,0,0,0,0,0,0,0,0,0,0,0,0,0,0,0,0,0,0,0,0,0,0,0,0,0,0,0,0,0,0,0,0,0,0,0,0,0,0,0,0,0,1.7975,1.7976,0,1.8085,1.8087,1.8088,1.8093,1.8092,1.809,1.8089,1.8201,1.8205,1.8209,0,0,0,0,0,0,0,0,0,0,0,0,0,1.7765,1.7769,1.7975,1.7976,1.7978,1.8085,1.8087,1.8088,1.8093,1.8092,1.809,1.8089,1.8199,1.8204,1.8209,0,0,0,0,0,0,0,0,0,0,0,0,0,1.7864,1.777,1.7975,1.7993,1.7996,1.8085,1.8087,1.8088,1.8094,1.8092,1.809,1.8088,1.8198,1.8204,1.821,1.8287,0,0,1.8229,1.8232,0,0,0,0,0,0,0,0,1.7858,1.7872,1.7989,1.7992,1.7995,1.8073,1.8054,1.8155,1.8094,1.8056,1.8089,1.8087,1.816,1.8169,1.8194,1.8292,1.8297,1.8229,1.8233,1.8236,1.8238,0,0,0,0,0,0,0,1.7852,1.7867,1.8019,1.7991,1.7995,1.7995,1.8007,1.8073,1.8117,1.806,1.806,1.8073,1.8161,1.8188,1.8196,1.8299,1.8229,1.8235,1.8239,1.8241,1.8463,1.8465,0,0,0,0,0,0,1.7841,1.7861,1.8015,1.8022,1.7921,1.8,1.8014,1.805,1.8117,1.8125,1.8075,1.8073,1.8178,1.8189,1.82,1.8294,1.8236,1.8242,1.8245,1.8461,1.8463,1.8466,0,0,0,0,0,0,1.7837,1.7855,1.8011,1.7942,1.7962,1.8006,1.8047,1.8053,1.808,1.8128,1.8136,1.8094,1.8177,1.8192,1.8265,1.8298,1.8244,1.825,1.8458,1.8462,1.8465,1.8482,0,0,0,0,0,0,1.7831,1.7854,1.7885,1.7942,1.7965,1.8075,1.8049,1.8057,1.8091,1.809,1.8149,1.8156,1.8177,1.8256,1.8271,1.8305,1.8255,1.8456,1.846,1.8464,1.8479,1.8485,1.8491,0,0,0,0,0,1.7823,1.7885,1.7886,1.7905,1.8005,1.8077,1.8089,1.8112,1.8094,1.8125,1.8155,1.8155,1.8291,1.8263,1.8281,1.8317,1.8454,1.8459,1.8463,1.8476,1.8484,1.8491,0,0,0,0,0,0,1.783,1.7893,1.7895,1.7978,1.8022,1.8077,1.8117,1.812,1.817,1.8167,1.8192,1.8205,1.8277,1.8304,1.8272,1.8394,1.837,1.8379,1.8374,1.8382,1.8388,1.838,1.826,0,0,0,0,0,1.7841,1.7895,1.7947,1.8015,1.8037,1.8073,1.8105,1.8118,1.8164,1.8183,1.8219,1.8263,1.8316,1.835,1.8402,1.8482,1.8494,1.8516,1.8522,1.8527,1.8534,1.8576,1.8586,1.8482,1.8482,1.8481,0,0,1.7865,1.7906,1.7939,1.8017,1.8053,1.8106,1.8089,1.8147,1.8187,1.8192,1.8263,1.8291,1.8341,1.8418,1.8454,1.8443,1.8565,1.8533,1.8536,1.8541,1.8582,1.8592,1.8601,1.8485,1.8484,1.8484,0,0,1.7936,1.7973,1.8032,1.8068,1.8122,1.8145,1.8159,1.8214,1.8232,1.8304,1.8308,1.8355,1.8446,1.8482,1.8511,1.8592,1.8593,1.8607,1.864,1.8681,1.8689,1.8697,1.8724,1.8734,1.8614,1.8614,1.8614,0,1.7958,1.8041,1.8062,1.812,1.8154,1.816,1.822,1.8253,1.8321,1.8343,1.833,1.8442,1.8477,1.8561,1.858,1.8605,1.8621,1.8602,1.8687,1.8694,1.8701,1.8728,1.8738,1.8616,1.8616,1.8616,1.8615,0,1.8065,1.8121,1.8163,1.8227,1.8265,1.8324,1.8353,1.8389,1.8397,1.8421,1.8493,1.8534,1.8593,1.8614,1.8624,1.8699,1.869,1.8682,1.8658,1.8712,1.8738,1.8748,1.8618,1.8617,1.8617,1.8617,0,0,1.8145,1.8219,1.8234,1.8263,1.8321,1.8365,1.8422,1.8479,1.8509,1.8554,1.8602,1.8677,1.8669,1.8703,1.8716,1.8752,1.881,1.8738,1.874,1.875,1.8894,1.89,1.8911,1.8811,1.8813,1.8814,1.8889,0,1.8222,1.8325,1.8345,1.8434,1.8485,1.849,1.854,1.858,1.8603,1.8649,1.8674,1.8726,1.8712,1.8732,1.8768,1.8796,1.884,1.8791,1.8854,1.8856,1.8842,1.8925,1.8932,1.9001,1.8899,1.8901,1.8902,0,1.8326,1.8373,1.8467,1.8516,1.8538,1.8583,1.8636,1.868,1.8724,1.8738,1.8775,1.8783,1.8841,1.8814,1.8893,1.8859,1.8886,1.8903,1.8906,1.8913,1.8883,1.8934,1.9023,1.9033,1.8918,1.8917,1.8916,0,1.8374,1.8461,1.8528,1.8552,1.8612,1.8642,1.8668,1.8711,1.8743,1.8789,1.881,1.8861,1.889,1.8929,1.895,1.8929,1.9027,1.9002,1.9039,1.9038,1.906,1.9059,1.9155,1.9077,1.9077,1.9077,1.9077,0,1.8457,1.8514,1.855,1.8591,1.8654,1.8675,1.8737,1.8762,1.88,1.8845,1.8852,1.8894,1.892,1.8964,1.8981,1.9043,1.9056,1.9068,1.9072,1.9067,1.9066,1.9086,1.9082,1.908,1.9079,1.9079,1.9078,0,1.8522,1.8549,1.8622,1.8671,1.8685,1.8729,1.877,1.881,1.8831,1.8888,1.8903,1.8937,1.899,1.9015,1.908,1.9091,1.9161,1.9162,1.9147,1.9148,1.9183,1.9179,1.9296,1.9312,1.9224,1.9225,1.9225,0,1.8574,1.8618,1.8671,1.8702,1.8728,1.8778,1.8811,1.8832,1.8865,1.8918,1.895,1.9003,1.9047,1.9131,1.9161,1.9211,1.9213,1.925,1.922,1.9214,1.9212,1.921,1.9213,1.9256,1.9256,1.9257,1.9258,0,1.8663,1.8673,1.872,1.8771,1.8809,1.8851,1.8891,1.8915,1.8942,1.8979,1.9034,1.9067,1.9134,1.9186,1.9237,1.9262,1.9264,1.9266,1.9277,1.9274,1.9263,1.9268,1.9161,1.9264,1.9263,1.9263,1.9263,1.9262,1.8722,1.8761,1.8804,1.8855,1.8887,1.8924,1.8963,1.8989,1.9034,1.909,1.9099,1.9157,1.9197,1.9266,1.9293,1.9337,1.9328,1.9344,1.9348,1.9352,1.9354,1.9255,1.9346,1.9346,1.9346,1.9346,1.9346,0,1.8811,1.8838,1.8885,1.894,1.898,1.8978,1.9022,1.9055,1.9105,1.9143,1.9186,1.9247,1.9296,1.9329,1.9379,1.9408,1.941,1.942,1.9419,1.9424,1.9359,1.9344,1.9418,1.9418,1.9418,1.9418,1.9418,1.9418,1.8861,1.8926,1.894,1.9019,1.9046,1.9102,1.9127,1.916,1.9191,1.9258,1.93,1.9321,1.9356,1.9408,1.9453,1.9461,1.9479,1.949,1.9497,1.9436,1.9429,1.9422,1.9408,1.9494,1.9494,1.9559,1.9559,1.956]}]]